Location: Unspecified
(0.0000°N, 0.0000°E)
Time: 21:59:23
(UTC+00:00)

ARIANE 6 FM1 Upper Stage - Pass Details

Date: 04 December 2025
Orbit: 522 x 611 km, 62.0° (Epoch: 08 December)

Event Time Altitude Azimuth Distance (km) Brightness Sun altitude
Rises 19:54:11 0° 320° (NW) 2,706 6.3 -28.4°
Reaches altitude 10° 19:56:30 10° 311° (NW) 1,831 5.5 -28.9°
Maximum altitude 20:00:16 34° 245° (WSW) 936 4.2 -29.8°
Enters shadow 20:00:27 34° 239° (WSW) 940 4.2 -29.8°
Exits shadow 20:01:38 27° 207° (SSW) 1,106 4.5 -30.1°
Drops below altitude 10° 20:04:09 10° 179° (S) 1,890 5.6 -30.6°
Sets 20:06:35 0° 170° (S) 2,807 6.4 -31.2°
